Total_Precipitation_Accumulation
0.00 0.00 0.00 0.00 0.00 0.00 0.00 0.02 0.02 0.06 0.07 0.07 0.08 0.08 0.07 0.05 0.04 0.04 0.02 0.01 0.01 0.01
0.00 0.00 0.00 0.00 0.00 0.00 0.00 0.01 0.04 0.05 0.07 0.08 0.09 0.09 0.08 0.07 0.05 0.03 0.01 0.02 0.03 0.03
0.00 0.00 0.00 0.00 0.00 0.00 0.00 0.00 0.01 0.03 0.04 0.05 0.06 0.07 0.07 0.07 0.05 0.02 0.01 0.01 0.01 0.01
0.00 0.00 0.00 0.00 0.00 0.00 0.00 0.00 0.01 0.02 0.02 0.02 0.02 0.02 0.02 0.03 0.03 0.03 0.02 0.01 0.02 0.02
0.00 0.00 0.00 0.00 0.00 0.00 0.00 0.01 0.01 0.03 0.02 0.01 0.01 0.01 0.01 0.01 0.01 0.03 0.06 0.05 0.06 0.07
0.00 0.00 0.00 0.00 0.00 0.00 0.00 0.01 0.01 0.01 0.01 0.01 0.01 0.01 0.01 0.01 0.02 0.06 0.08 0.09 0.10 0.08
0.00 0.00 0.00 0.00 0.01 0.02 0.02 0.02 0.02 0.01 0.01 0.01 0.01 0.02 0.03 0.05 0.07 0.12 0.13 0.12 0.12 0.13
0.00 0.00 0.00 0.01 0.02 0.02 0.02 0.02 0.02 0.03 0.02 0.01 0.01 0.02 0.04 0.06 0.12 0.16 0.19 0.20 0.24 0.29
0.00 0.01 0.01 0.02 0.04 0.03 0.02 0.02 0.05 0.07 0.06 0.06 0.05 0.10 0.08 0.05 0.06 0.10 0.15 0.19 0.21 0.17
0.01 0.01 0.02 0.03 0.05 0.07 0.08 0.04 0.04 0.08 0.15 0.10 0.12 0.21 0.21 0.24 0.27 0.29 0.26 0.21 0.17 0.13
0.01 0.01 0.02 0.10 0.11 0.16 0.14 0.16 0.08 0.07 0.10 0.12 0.19 0.27 0.28 0.24 0.21 0.18 0.16 0.14 0.10 0.05
0.06 0.08 0.04 0.09 0.14 0.20 0.12 0.14 0.23 0.22 0.20 0.22 0.26 0.21 0.14 0.10 0.10 0.10 0.06 0.03 0.00 0.00
0.15 0.17 0.29 0.22 0.15 0.25 0.31 0.21 0.23 0.31 0.27 0.20 0.17 0.12 0.08 0.05 0.03 0.01 0.00 0.00 0.00 0.00
0.09 0.13 0.24 0.34 0.34 0.32 0.33 0.31 0.26 0.16 0.10 0.05 0.03 0.01 0.00 0.00 0.00 0.00 0.00 0.00 0.00 0.00